NOAA 16 DEB

Satellite information

Favourite Embed

Satellite Type and Status

DEBRISIN ORBIT

Key statistics

Satellite NOAA 16 DEB at a glance.

Uptime

9115

Days in orbit

Revolutions

≈ 14.5

Per day

Orbit

SSO

Sun Synchronous Orbit

Inclination

98.8

Latest

Satellite identification and parameters

Extended collection of information and parameters for NOAA 16 DEB.

Object identification

Identified? True

Debris? True

Object name: NOAA 16 DEB

International designator: 2000-055CD

Object number (NORAD): 41146

Object ID (CCSDS): 41146

Country: UNITED STATES OF AMERICA (US)

Current information (Y/N): Y

RCS size: SMALL

Orbital parameters

Period: 99.609 minutes

Inclination: 98.8279 deg

SMA: 7118.033 km

Apoapsis: 755.211 km

Periapsis: 724.586 km

RAAN: 354.7156 deg

Eccentricy: 0.00215128

Argument of periapsis: 239.6049 deg

Mean anomaly: 120.3015 deg

Mean motion: 14.45648552 rev/day

Mean motion (dot): 0.00035507 rev/day2

B* drag term: 0.0099723686 1/REarth

Two-line elements (TLE)

Creation date: Sept. 3, 2025, 10:15 a.m.

Reference frame: TEME

Reference center: EARTH

Epoch: Sept. 3, 2025, 5:43 a.m. UTC

TLE line 0: 0 NOAA 16 DEB

TLE line 1: 1 41146U 00055CD 25246.23869980 .00035507 00000-0 99724-2 0 9993

TLE line 2: 2 41146 98.8279 354.7156 0021513 239.6049 120.3015 14.45648552504855

Live tracking on map

Real-time ground track for satellite NOAA 16 DEB.

In-orbit conjunctions

A list of the most updated potential collisions computed for object NOAA 16 DEB.

Target Orbit TCA Probability of collision Miss distance Type
GEOSAT SSO 2025-05-15 08:16:12 0.0002817291 492.0 (m) PAYLOAD
ORBCOMM FM 3 SSO 2025-04-25 07:53:49 0.0001455757 666.0 (m) PAYLOAD
NOAA 16 DEB SSO 2024-11-13 09:26:56 0.0001958284 534.0 (m) DEBRIS
IDEFIX/ARIANE 42P SSO 2024-07-23 03:46:27 0.0001108015 543.0 (m) PAYLOAD

Associated space launch

The NOAA K, L and M POES satellites begin the fifth generation of improved environmental monitoring in support of NOAA missions. The instrument payload has significant improvements and additions/deletions. The instrument changes have effected the spacecraft subsystems and data formats.

NOAA 16 DEB was lifted into orbit during the mission ‘Titan II SLV | NOAA 16’, on board a Titan II SLV space rocket.

The launch took place on Sept. 21, 2000, 10:22 a.m. from Space Launch Complex 4W.

For more information about the launch, click the button.

Launch to space Titan II SLV | NOAA 16
Titan II SLV | NOAA 16

Agency: N/A

Status: Launch Successful

Launch date: Sept. 21, 2000, 10:22 a.m. UTC

Rocket: Titan II SLV

Launch pad: Space Launch Complex 4W

Location: Vandenberg SFB, CA, USA

...

Latest news about this satellite

There are no fresh news available about this satellite. Check back as we update our databases every day.


Newsletter sign-up

Weekly statistics, charts and insights to help you stay on top of the space industry.